DELTA 1 DEB

Satellite information

Favourite Embed

Satellite Type and Status

DEBRISIN ORBIT

Key statistics

Satellite DELTA 1 DEB at a glance.

Uptime

21180

Days in orbit

Revolutions

≈ 12.5

Per day

Orbit

SSO

Sun Synchronous Orbit

Inclination

102.4

Latest

Satellite identification and parameters

Extended collection of information and parameters for DELTA 1 DEB.

Object identification

Identified? True

Debris? True

Object name: DELTA 1 DEB

International designator: 1967-114D

Object number (NORAD): 3123

Object ID (CCSDS): 3123

Country: UNITED STATES OF AMERICA (US)

Current information (Y/N): Y

RCS size: SMALL

Orbital parameters

Period: 115.376 minutes

Inclination: 102.4466 deg

SMA: 7850.604 km

Apoapsis: 1494.553 km

Periapsis: 1450.386 km

RAAN: 63.2475 deg

Eccentricy: 0.00281297

Argument of periapsis: 328.0988 deg

Mean anomaly: 213.9028 deg

Mean motion: 12.48096409 rev/day

Mean motion (dot): -0.00000013 rev/day2

B* drag term: 0.00023678486 1/REarth

Two-line elements (TLE)

Creation date: Oct. 29, 2025, 7:31 p.m.

Reference frame: TEME

Reference center: EARTH

Epoch: Oct. 29, 2025, 3:27 a.m. UTC

TLE line 0: 0 DELTA 1 DEB

TLE line 1: 1 03123U 67114D 25302.14442550 -.00000013 00000-0 23678-3 0 9999

TLE line 2: 2 03123 102.4466 63.2475 0028130 328.0988 213.9028 12.48096409639931

Live tracking on map

Real-time ground track for satellite DELTA 1 DEB.

In-orbit conjunctions

A list of the most updated potential collisions computed for object DELTA 1 DEB.

Target Orbit TCA Probability of collision Miss distance Type
COSMOS 1823 DEB LEO 2024-12-21 09:39:13 0.0001300908 23.0 (m) DEBRIS

Associated space launch

The ESSA series was the second generation of US meterological satellites after the TIROS (Television & Infra-Red Observation Satellite) series. They were also called OT (Operational TIROS), TOS (TIROS Operational Satellite).

DELTA 1 DEB was lifted into orbit during the mission ‘Thor Delta E1 | ESSA 6’, on board a Thor Delta E1 space rocket.

The launch took place on Nov. 10, 1967, 5:53 p.m. from Space Launch Complex 2E.

For more information about the launch, click the button.

Launch to space Thor Delta E1 | ESSA 6
Thor Delta E1 | ESSA 6

Agency: N/A

Status: Launch Successful

Launch date: Nov. 10, 1967, 5:53 p.m. UTC

Rocket: Thor Delta E1

Launch pad: Space Launch Complex 2E

Location: Vandenberg SFB, CA, USA

...

Latest news about this satellite

There are no fresh news available about this satellite. Check back as we update our databases every day.


Newsletter sign-up

Weekly statistics, charts and insights to help you stay on top of the space industry.